• In Uzbekistan
  • List of Countries
  • For 7 days
  • Water Temperature
  • Satellite Maps
  • Weather Map
  • Weather Widgets
  • user-avatar
    Login

    Hourly Weather Kalgoorlie

    Today, 20 January, Friday

    Time Temperature Precipitation Wind Pressure Humidity
    00:00 +18°C° 0 mm 8 mps 725 mmHg 62%
    01:00 +17°C° 0 mm 7 mps 725 mmHg 67%
    02:00 +17°C° 0 mm 7 mps 725 mmHg 72%
    03:00 +16°C° 0 mm 6 mps 726 mmHg 74%
    04:00 +16°C° 0 mm 6 mps 726 mmHg 77%
    05:00 +16°C° 0 mm 6 mps 726 mmHg 79%
    06:00 +17°C° 0 mm 6 mps 726 mmHg 74%
    07:00 +19°C° 0 mm 6 mps 727 mmHg 70%
    08:00 +20°C° 0 mm 6 mps 727 mmHg 63%
    09:00 +22°C° 0 mm 5 mps 727 mmHg 56%
    10:00 +25°C° 0 mm 5 mps 727 mmHg 49%
    11:00 +27°C° 0 mm 4 mps 726 mmHg 42%
    12:00 +28°C° 0 mm 4 mps 726 mmHg 38%
    13:00 +29°C° 0 mm 3 mps 725 mmHg 33%
    14:00 +31°C° 0 mm 3 mps 725 mmHg 29%
    15:00 +31°C° 0 mm 3 mps 725 mmHg 28%
    16:00 +31°C° 0 mm 3 mps 725 mmHg 27%
    17:00 +32°C° 0 mm 4 mps 724 mmHg 26%
    18:00 +30°C° 0 mm 4 mps 725 mmHg 30%
    19:00 +28°C° 0 mm 5 mps 725 mmHg 35%
    20:00 +27°C° 0 mm 6 mps 725 mmHg 39%
    21:00 +26°C° 0 mm 7 mps 725 mmHg 44%
    22:00 +24°C° 0 mm 7 mps 726 mmHg 48%
    23:00 +23°C° 0 mm 8 mps 726 mmHg 52%

    Tomorrow, 21 January, Saturday

    Time Temperature Precipitation Wind Pressure Humidity
    00:00 +22°C° 0 mm 7 mps 726 mmHg 56%
    01:00 +21°C° 0 mm 7 mps 726 mmHg 60%
    02:00 +20°C° 0 mm 7 mps 725 mmHg 64%
    03:00 +20°C° 0 mm 6 mps 725 mmHg 65%
    04:00 +19°C° 0 mm 5 mps 725 mmHg 67%
    05:00 +19°C° 0 mm 5 mps 725 mmHg 68%
    06:00 +20°C° 0 mm 5 mps 725 mmHg 64%
    07:00 +22°C° 0 mm 5 mps 725 mmHg 59%
    08:00 +23°C° 0 mm 5 mps 726 mmHg 55%
    09:00 +26°C° 0 mm 5 mps 725 mmHg 49%
    10:00 +29°C° 0 mm 4 mps 725 mmHg 43%
    11:00 +31°C° 0 mm 3 mps 725 mmHg 38%
    12:00 +32°C° 0 mm 2 mps 724 mmHg 34%
    13:00 +34°C° 0 mm 1 mps 724 mmHg 29%
    14:00 +33°C° 0 mm 0 mps 723 mmHg 25%
    15:00 +33°C° 0 mm 0 mps 723 mmHg 24%
    16:00 +33°C° 0 mm 0 mps 723 mmHg 23%
    17:00 +35°C° 0 mm 1 mps 722 mmHg 23%
    18:00 +35°C° 0 mm 2 mps 723 mmHg 25%
    19:00 +34°C° 0 mm 3 mps 723 mmHg 27%
    20:00 +33°C° 0 mm 4 mps 723 mmHg 29%
    21:00 +32°C° 0 mm 4 mps 723 mmHg 30%
    22:00 +30°C° 0 mm 5 mps 723 mmHg 32%
    23:00 +30°C° 0 mm 5 mps 723 mmHg 33%

    Day after tomorrow, 22 January, Sunday

    Time Temperature Precipitation Wind Pressure Humidity
    00:00 +29°C° 0 mm 5 mps 723 mmHg 36%
    01:00 +28°C° 0 mm 5 mps 723 mmHg 38%
    02:00 +28°C° 0 mm 5 mps 723 mmHg 41%
    03:00 +27°C° 0 mm 4 mps 723 mmHg 46%
    04:00 +27°C° 0 mm 4 mps 723 mmHg 50%
    05:00 +26°C° 0 mm 3 mps 723 mmHg 55%
    06:00 +28°C° 0 mm 4 mps 723 mmHg 50%
    07:00 +30°C° 0 mm 5 mps 723 mmHg 45%
    08:00 +32°C° 0 mm 6 mps 724 mmHg 40%
    09:00 +34°C° 0 mm 6 mps 724 mmHg 35%
    10:00 +38°C° 0 mm 6 mps 723 mmHg 30%
    11:00 +40°C° 0 mm 6 mps 723 mmHg 24%
    12:00 +40°C° 0 mm 5 mps 723 mmHg 23%
    13:00 +41°C° 0 mm 5 mps 722 mmHg 22%
    14:00 +42°C° 0 mm 5 mps 722 mmHg 21%
    15:00 +41°C° 0 mm 5 mps 722 mmHg 22%
    16:00 +40°C° 0 mm 5 mps 721 mmHg 24%
    17:00 +39°C° 0 mm 5 mps 721 mmHg 25%
    18:00 +37°C° 0 mm 5 mps 722 mmHg 30%
    19:00 +35°C° 0 mm 6 mps 722 mmHg 34%
    20:00 +33°C° 0 mm 7 mps 723 mmHg 39%
    21:00 +29°C° 0 mm 7 mps 723 mmHg 46%
    22:00 +27°C° 0 mm 8 mps 723 mmHg 54%
    23:00 +23°C° 0 mm 9 mps 724 mmHg 61%

    23 January, Monday

    Time Temperature Precipitation Wind Pressure Humidity
    00:00 +22°C° 0 mm 8 mps 724 mmHg 65%
    01:00 +21°C° 0 mm 8 mps 724 mmHg 68%
    02:00 +20°C° 0 mm 8 mps 724 mmHg 71%
    03:00 +18°C° 0 mm 8 mps 724 mmHg 72%
    04:00 +18°C° 0 mm 7 mps 725 mmHg 73%
    05:00 +17°C° 0 mm 7 mps 725 mmHg 74%
    06:00 +18°C° 0 mm 7 mps 726 mmHg 69%
    07:00 +18°C° 0 mm 7 mps 727 mmHg 65%
    08:00 +20°C° 0 mm 7 mps 727 mmHg 60%
    09:00 +22°C° 0 mm 7 mps 728 mmHg 53%
    10:00 +24°C° 0 mm 6 mps 728 mmHg 47%
    11:00 +27°C° 0 mm 6 mps 728 mmHg 40%
    12:00 +29°C° 0 mm 5 mps 728 mmHg 37%
    13:00 +30°C° 0 mm 5 mps 727 mmHg 33%
    14:00 +32°C° 0 mm 4 mps 727 mmHg 30%
    15:00 +33°C° 0 mm 4 mps 727 mmHg 28%
    16:00 +33°C° 0 mm 5 mps 727 mmHg 25%
    17:00 +33°C° 0 mm 5 mps 727 mmHg 23%
    18:00 +30°C° 0 mm 5 mps 728 mmHg 25%
    19:00 +29°C° 0 mm 6 mps 728 mmHg 28%
    20:00 +27°C° 0 mm 6 mps 729 mmHg 30%
    21:00 +24°C° 0 mm 7 mps 730 mmHg 37%
    22:00 +23°C° 0 mm 9 mps 730 mmHg 44%
    23:00 +21°C° 0 mm 10 mps 731 mmHg 51%

    24 January, Tuesday

    Time Temperature Precipitation Wind Pressure Humidity
    00:00 +19°C° 0 mm 9 mps 731 mmHg 55%
    01:00 +18°C° 0 mm 8 mps 731 mmHg 59%
    02:00 +17°C° 0 mm 8 mps 731 mmHg 64%
    03:00 +16°C° 0 mm 7 mps 731 mmHg 65%
    04:00 +16°C° 0 mm 7 mps 731 mmHg 67%
    05:00 +16°C° 0 mm 6 mps 732 mmHg 69%
    06:00 +16°C° 0 mm 7 mps 732 mmHg 65%
    07:00 +17°C° 0 mm 7 mps 733 mmHg 61%
    08:00 +18°C° 0 mm 7 mps 733 mmHg 57%
    09:00 +22°C° 0 mm 7 mps 733 mmHg 50%
    10:00 +24°C° 0 mm 7 mps 733 mmHg 43%
    11:00 +27°C° 0 mm 7 mps 733 mmHg 36%
    12:00 +29°C° 0 mm 7 mps 732 mmHg 33%
    13:00 +30°C° 0 mm 7 mps 732 mmHg 30%
    14:00 +32°C° 0 mm 6 mps 732 mmHg 28%
    15:00 +32°C° 0 mm 6 mps 732 mmHg 28%
    16:00 +32°C° 0 mm 6 mps 731 mmHg 28%
    17:00 +30°C° 0 mm 6 mps 731 mmHg 28%
    18:00 +29°C° 0 mm 5 mps 732 mmHg 31%
    19:00 +28°C° 0 mm 5 mps 732 mmHg 34%
    20:00 +26°C° 0 mm 4 mps 732 mmHg 37%
    21:00 +26°C° 0 mm 4 mps 732 mmHg 38%
    22:00 +25°C° 0 mm 4 mps 733 mmHg 39%
    23:00 +25°C° 0 mm 4 mps 733 mmHg 40%

    25 January, Wednesday

    Time Temperature Precipitation Wind Pressure Humidity
    00:00 +23°C° 0 mm 4 mps 733 mmHg 40%
    01:00 +23°C° 0 mm 5 mps 733 mmHg 41%
    02:00 +23°C° 0 mm 5 mps 733 mmHg 42%
    03:00 +22°C° 0 mm 5 mps 733 mmHg 44%
    04:00 +22°C° 0 mm 5 mps 733 mmHg 47%
    05:00 +21°C° 0 mm 6 mps 733 mmHg 49%
    06:00 +21°C° 0 mm 6 mps 733 mmHg 49%
    07:00 +22°C° 0 mm 6 mps 734 mmHg 49%
    08:00 +22°C° 0 mm 6 mps 734 mmHg 49%
    09:00 +26°C° 0 mm 6 mps 734 mmHg 41%
    10:00 +29°C° 0 mm 6 mps 734 mmHg 33%
    11:00 +32°C° 0 mm 6 mps 734 mmHg 25%
    12:00 +33°C° 0 mm 5 mps 733 mmHg 23%
    13:00 +34°C° 0 mm 5 mps 733 mmHg 21%
    14:00 +35°C° 0 mm 5 mps 732 mmHg 19%
    15:00 +35°C° 0 mm 5 mps 732 mmHg 19%
    16:00 +36°C° 0 mm 5 mps 732 mmHg 18%
    17:00 +36°C° 0 mm 5 mps 732 mmHg 18%
    18:00 +34°C° 0 mm 5 mps 732 mmHg 20%
    19:00 +32°C° 0 mm 5 mps 733 mmHg 21%
    20:00 +30°C° 0 mm 5 mps 733 mmHg 22%
    21:00 +29°C° 0 mm 6 mps 733 mmHg 24%
    22:00 +27°C° 0 mm 6 mps 733 mmHg 25%
    23:00 +26°C° 0 mm 7 mps 733 mmHg 27%
    Show more